sat.trackr.live / text

‹ back to catalog

SIGI

NORAD 62632 · 2025-009Z

PAYLOAD ACTIVE UNKNOWN

§ Identity

Operator
Country
GER
Launch date
2025-01-14
Launch site
AFWTR
Launch vehicle
Mass (kg)
RCS (m²)

External: N2YO · Heavens-Above · Gunter

§ Orbital elements

Epoch: 2026-09-22T19:48:56.420064Z

Period
94.39 min
Inclination
97.3945°
Eccentricity
0.0002538
Mean motion
15.25517097 rev/d
Perigee alt
487.5 km
Apogee alt
491.0 km
Semi-major
6,867.4 km
B*
1.4665e-4
RAAN
344.8749°
Arg perigee
358.4396°
Mean anomaly
1.6833°
Rev number
9,368

§ Raw data

SIGI1 62632U 25009Z   26265.82565301  .00003644  00000+0  14665-3 0  99972 62632  97.3945 344.8749 0002538 358.4396   1.6833 15.25517097 93682

JSON: /api/v1/satellites/62632 · /tle

For live sub-satellite position, see the globe view (requires WebGL).

§ Visibility from observer

Set your observer location to see the next 7 days of passes ≥ 10°. The values pass through the URL so the page stays shareable.

No JS? Fill the form by hand. The geolocation button needs JavaScript.

§ Radio — SatNOGS DB

ModeDescriptionDownlinkUplink
BPSK Mode S - Transmitter 2.223 GHz
FM Mode X - Transmitter 8.255 GHz

2 transmitters · refreshed weekly from db.satnogs.org